WZZ1641 LPPR-EPKT

Flight info

Callsign WZZ1641
Flight time N/A
Altitude 34000
Route BELDU DCT CANAR DCT ADORO DCT FITSE DCT DGO DCT LPA DCT GOSVI DCT TOPTU DCT TOU DCT GAI DCT MEN DCT NINUN DCT LATAM DCT ETREK DCT LTP DCT SOPLO DCT OMASI DCT KINNI DCT SOSAL DCT KORED DCT GAMSA/N0450F350 DCT BEPAS DCT NELPA DCT BAVOK
Aircraft A321/M-SDE3FGHIRWY/LB1

Departure

Time 2026-05-07 16:38
Airport Francisco de Sá Carneiro Airport (LPPR)

Arrival

Time N/A
Airport Katowice Wojciech Korfanty International Airport (EPKT)
Time Latitude Longitude Altitude Speed Heading
2026-05-07 16:22 41.23439 -8.67266 235 ft 0 kts 59°
2026-05-07 16:32 41.23429 -8.67288 239 ft 4 kts 59°
2026-05-07 16:32 41.23416 -8.67319 239 ft 3 kts 59°
2026-05-07 16:32 41.23406 -8.67345 239 ft 4 kts 93°
2026-05-07 16:32 41.23415 -8.67371 239 ft 4 kts 144°
2026-05-07 16:33 41.23425 -8.67380 239 ft 0 kts 148°
2026-05-07 16:35 41.23417 -8.67374 240 ft 3 kts 148°
2026-05-07 16:35 41.23396 -8.67363 238 ft 4 kts 169°
2026-05-07 16:35 41.23361 -8.67372 236 ft 8 kts 212°
2026-05-07 16:35 41.23328 -8.67449 238 ft 10 kts 258°
2026-05-07 16:36 41.23316 -8.67545 235 ft 11 kts 259°
2026-05-07 16:36 41.23301 -8.67668 239 ft 15 kts 265°
2026-05-07 16:36 41.23302 -8.67722 241 ft 2 kts 305°
2026-05-07 16:36 41.23327 -8.67734 237 ft 0 kts 348°
2026-05-07 16:37 41.23368 -8.67745 237 ft 28 kts 348°
2026-05-07 16:37 41.23787 -8.67855 234 ft 94 kts 349°
2026-05-07 16:37 41.24623 -8.68073 238 ft 148 kts 348°
2026-05-07 16:38 41.25764 -8.68366 445 ft 173 kts 346°
2026-05-07 16:38 41.26932 -8.68652 1257 ft 167 kts 347°
2026-05-07 16:38 41.28050 -8.68950 2059 ft 161 kts 345°
2026-05-07 16:38 41.29204 -8.69281 2324 ft 180 kts 346°
2026-05-07 16:39 41.30514 -8.69636 2486 ft 202 kts 347°
2026-05-07 16:39 41.31975 -8.70022 2609 ft 227 kts 347°
2026-05-07 16:39 41.33599 -8.70445 2960 ft 246 kts 348°
2026-05-07 16:39 41.35329 -8.70728 3537 ft 256 kts
2026-05-07 16:40 41.37049 -8.70047 4145 ft 265 kts 31°
2026-05-07 16:40 41.38357 -8.68303 4751 ft 271 kts 62°
2026-05-07 16:40 41.38883 -8.65905 5401 ft 273 kts 87°
2026-05-07 16:40 41.39007 -8.63371 6081 ft 276 kts 88°
2026-05-07 16:41 41.39122 -8.60846 6769 ft 277 kts 89°
2026-05-07 16:41 41.39242 -8.58274 7438 ft 279 kts 89°
2026-05-07 16:41 41.39365 -8.55685 8124 ft 281 kts 89°
2026-05-07 16:41 41.39492 -8.53077 8808 ft 283 kts 89°
2026-05-07 16:42 41.39619 -8.50451 9491 ft 286 kts 89°
2026-05-07 16:42 41.39747 -8.47798 10093 ft 290 kts 89°
2026-05-07 16:42 41.39880 -8.45014 10229 ft 312 kts 89°
2026-05-07 16:42 41.40022 -8.42032 10355 ft 332 kts 89°
2026-05-07 16:43 41.40172 -8.38873 10499 ft 351 kts 88°
2026-05-07 16:43 41.40329 -8.35588 10909 ft 359 kts 88°
2026-05-07 16:43 41.40490 -8.32259 11459 ft 363 kts 88°
2026-05-07 16:43 41.40652 -8.28883 12022 ft 366 kts 88°
2026-05-07 16:44 41.40811 -8.25477 12589 ft 370 kts 88°
2026-05-07 16:44 41.40966 -8.22080 13144 ft 374 kts 87°
2026-05-07 16:44 41.41129 -8.18560 13723 ft 378 kts 87°
2026-05-07 16:44 41.41291 -8.15092 14238 ft 381 kts 88°
2026-05-07 16:45 41.41454 -8.11549 14764 ft 385 kts 88°
2026-05-07 16:45 41.41615 -8.07982 15283 ft 388 kts 88°
2026-05-07 16:45 41.41778 -8.04377 15806 ft 391 kts 87°
2026-05-07 16:45 41.41939 -8.00747 16333 ft 395 kts 88°
2026-05-07 16:46 41.42101 -7.97086 16854 ft 398 kts 88°
2026-05-07 16:46 41.42263 -7.93388 17378 ft 401 kts 88°
2026-05-07 16:46 41.42426 -7.89667 17895 ft 404 kts 88°
2026-05-07 16:46 41.42590 -7.85921 18373 ft 407 kts 88°
2026-05-07 16:47 41.42751 -7.82134 18825 ft 410 kts 88°